Regional Weather Roundup
Issued by NWS

Home | Current Version | Previous Version | Graphics & Text | Print | Product List | Glossary On
Versions: 1 2 3 4 5 6 7 8 9 10 11 12 13 14 15 16 17 18 19 20 21 22 23 24 25 26 27 28 29 30 31 32 33 34 35 36 37 38 39 40 41 42 43 44 45 46 47 48 49 50
000
ASUS43 KIND 131259
RWRIN

WEATHER ROUNDUP FOR INDIANA
NATIONAL WEATHER SERVICE INDIANAPOLIS IN
800 AM EST SAT FEB 13 2016

NOTE: "FAIR" INDICATES FEW OR NO CLOUDS BELOW 12,000 FEET WITH NO
SIGNIFICANT WEATHER AND/OR OBSTRUCTIONS TO VISIBILITY.

* - STATION DOES NOT REPORT WEATHER SUCH AS PRECIPITATION OR FOG.

+ - STATION NOT QUALITY CONTROLLED BY THE NATIONAL WEATHER SERVICE.
    USE DATA WITH CAUTION...ESPECIALLY DEWPOINT AND RELATIVE
    HUMIDITY OBSERVATIONS.

INZ001>003-010>013-019-020-131400-
NORTHWEST INDIANA

CITY           SKY/WX    TMP DP  RH WIND       PRES   REMARKS
GARY /AIRPORT/ PTCLDY     5 -11  47 W14       30.57R WCI -12
RENSSELAER +   PTCLDY     5 -11  47 NW8       30.56R WCI  -8

$$

LMZ046-743>745-131400-
SOUTHERN LAKE MICHIGAN

STATION/POSITION TIME  TEMP    WIND        PRES    WAVE
                       AIR SEA DIR/SP/G            HT
                 (UTC) (F)     (DEG/KT/KT) (MB)    (FT)
BURNS HARBOR     1208   10     310/ 14/ 25 1033.9R
MICHIGAN CITY    1200   11     290/ 20/ 24   N/A

$$

INZ004-005-014>016-021>024-131400-
NORTH CENTRAL INDIANA

CITY           SKY/WX    TMP DP  RH WIND       PRES   REMARKS
GOSHEN         MOCLDY     1  -3  83 SW7       30.47R WCI -12
SOUTH BEND     SNOW      10   6  84 W7        30.47R VSB 1/2 WCI  -1

$$

INZ006>009-017-018-025>027-131400-
NORTHEAST INDIANA

CITY           SKY/WX    TMP DP  RH WIND       PRES   REMARKS
ANGOLA *+      MOCLDY     1  -4  78 W7        30.41R WCI -11
FORT WAYNE     PTCLDY     2  -6  69 W8        30.48R WCI -12

$$

INZ028-029-035-036-043>045-051>053-131400-
WEST CENTRAL INDIANA

CITY           SKY/WX    TMP DP  RH WIND       PRES   REMARKS
CRAWFORDSVL +  CLEAR      3  -9  57 NW8       30.54R WCI -11
GREENCASTLE +  CLEAR      7  -9  47 NW6       30.54R WCI  -3
LAFAYETTE      CLEAR      4  -8  57 NW13      30.56R WCI -13
TERRE HAUTE    CLEAR      8  -5  55 NW7       30.59R WCI  -3

$$

INZ030>032-037>040-046>048-054>057-064-065-131400-
CENTRAL INDIANA

CITY           SKY/WX    TMP DP  RH WIND       PRES   REMARKS
GREENWOOD *+   CLEAR      9   0  66 NW8       30.53R WCI  -4
INDIANAPOLIS   PTCLDY     7  -4  60 NW10      30.52R WCI  -8
-EAGLE CREEK   CLEAR      7  -3  64 NW9       30.52R WCI  -7
KOKOMO *+      CLEAR      7  -4  61 NW10      30.51R WCI  -8
MT COMFORT *+  CLEAR      7  -2  66 NW8       30.52R WCI  -6
SHELBYVILLE    CLEAR      8  -1  66 NW8       30.52R WCI  -4

$$

INZ033-034-041-042-049-050-058-059-131400-
EAST CENTRAL INDIANA

CITY           SKY/WX    TMP DP  RH WIND       PRES   REMARKS
MUNCIE         MOCLDY     5  -3  69 W6        30.49R WCI  -6

$$

INZ060-061-067>069-081>083-085>088-131400-
SOUTHWEST INDIANA

CITY           SKY/WX    TMP DP  RH WIND       PRES   REMARKS
EVANSVILLE     CLEAR     15   2  56 N6        30.61R WCI   6
HUNTINGBURG *+ CLEAR     12   1  62 NW8       30.58R WCI   1

$$

INZ062-063-066-070>080-084-089>092-131400-
SOUTH CENTRAL AND SOUTHEAST INDIANA

CITY           SKY/WX    TMP DP  RH WIND       PRES   REMARKS
BLOOMINGTON    CLOUDY     8  -5  55 NW3       30.54R
MADISON *+     PTCLDY    12   1  62 NW5       30.53R WCI   4
SEYMOUR +      CLEAR     12   0  57 NW7       30.55R WCI   2

$$




USA.gov is the U.S. government's official web portal to all federal, state and local government web resources and services.